Location: Beaurevoir
(49.9971°N, 3.3085°E)
Time: 10:13:18
(UTC+00:00)

Lacrosse 5 rocket - Pass Details

Date: 23 May 2024
Orbit: 446 x 572 km, 57.0° (Epoch: 14 June)

Event Time Altitude Azimuth Distance (km) Brightness Sun altitude
Rises 02:57:58 0° 293° (WNW) 2,706 4.6 -7.3°
Reaches altitude 10° 03:01:04 10° 269° (W) 1,780 3.5 -7.0°
Maximum altitude 03:03:14 14° 236° (SW) 1,505 2.9 -6.7°
Drops below altitude 10° 03:05:21 10° 203° (SSW) 1,730 3.3 -6.5°
Sets 03:08:18 0° 178° (S) 2,577 4.4 -6.1°
